Location: Newark
(49.8969°N, 3.3422°E)
Time: 21:07:15
(UTC+00:00)

Explorer 7 - Pass Details

Date: 28 January 2020
Orbit: 485 x 679 km, 50.3° (Epoch: 23 February)

Event Time Altitude Azimuth Distance (km) Brightness Sun altitude
Rises 21:09:48 0° 220° (SW) 2,595 - -43.6°
Reaches altitude 10° 21:12:11 10° 209° (SSW) 1,692 - -44.0°
Maximum altitude 21:15:31 29° 148° (SSE) 918 - -44.4°
Drops below altitude 10° 21:18:48 10° 87° (E) 1,669 - -44.9°
Sets 21:21:08 0° 76° (ENE) 2,552 - -45.2°
